Location: Quebec
(46.8000°N, 71.2500°W)
Time: 19:49:57
(UTC-04:00)

OTV 5 (USA 277) - Pass Details

Date: 15 October 2017
Orbit: 404 x 417 km, 43.0° (Epoch: 07 September)

Event Time Altitude Azimuth Distance (km) Brightness Sun altitude
Rises 20:20:02 0° 266° (W) 2,356 ? -25.0°
Reaches altitude 10° 20:22:14 10° 259° (WSW) 1,492 ? -25.4°
Enters shadow 20:23:45 22° 244° (WSW) 952 ? -25.7°
